ONEWEB-0168

Last updated on April 25, 2021, 12:02 a.m. UTC

1 48068U 21025AC  21114.58336806 -.01104665  00000-0 -60669-1 0  9997
2 48068  87.4099 339.3955 0008581 152.2156  21.8900 15.16894195  1758
UTC
Height (km)
Latitude
Longitude
Inclination
Orbital Period
UTC large
Height (km)
Speed (km/s)
/
Latitude / Longitude
Inclination (degrees)
Orbital Period (minutes)
Azimuth
Elevation
Range (km)
Doppler Factor
iOS Compass Heading
iOS Angle

Next 30 passes for location: Hong Kong

Rise time Rise Azimuth (degrees) Set time Set Azimuth (degrees) Duration Max altitude (degrees)

No matching passes for this satellites